Location: Boiro
(42.6475°N, 8.8834°W)
Time: 16:24:29
(UTC+02:00)

CUBESAT XI-V - Visible Passes

Search period start: 18 June 2025 00:00
Search period end: 28 June 2025 00:00
Orbit: 648 x 667 km, 98.3° (Epoch: 17 June)

Date Brightness Start Highest point End Pass type
(mag) Time Alt. Az. Time Alt. Az. Time Alt. Az.
18 Jun ? 04:16:33 10° ESE 04:20:20 27° ENE 04:24:10 10° N visible
18 Jun ? 05:53:10 11° SSW 05:57:03 31° W 06:01:07 10° NNW visible
19 Jun ? 04:44:40 10° SSE 04:49:03 51° ENE 04:53:29 10° N visible
20 Jun ? 03:40:04 10° E 03:41:44 12° ENE 03:43:24 10° NE visible
20 Jun ? 05:13:40 12° S 05:17:53 81° WSW 05:22:29 10° NNW visible
21 Jun ? 04:06:50 10° ESE 04:10:17 22° ENE 04:13:45 10° NNE visible
21 Jun ? 05:42:55 12° SSW 05:46:50 40° W 05:51:10 10° NNW visible
22 Jun ? 04:34:42 10° SE 04:38:56 40° ENE 04:43:13 10° N visible
22 Jun ? 06:12:30 10° SW 06:15:55 21° W 06:19:21 10° NW visible
23 Jun ? 05:03:24 11° SSE 05:07:43 79° ENE 05:12:19 10° N visible
24 Jun ? 03:57:13 10° ESE 04:00:12 18° ENE 04:03:13 10° NNE visible
24 Jun ? 05:32:37 13° S 05:36:37 52° W 05:41:06 10° NNW visible
25 Jun ? 04:24:48 10° SE 04:28:49 32° ENE 04:32:53 10° N visible
25 Jun ? 06:01:51 10° SSW 06:05:38 26° W 06:09:30 10° NW visible
26 Jun ? 04:53:07 10° SSE 04:57:33 62° ENE 05:02:05 10° N visible
27 Jun ? 03:47:46 10° E 03:50:09 14° ENE 03:52:30 10° NNE visible
27 Jun ? 05:22:20 13° S 05:26:24 67° WSW 05:30:59 10° NNW visible
